SCP
0 0 0 1 1 1 1 1 1 1 1 1 1 1 1 1 1 1 1 1 1 1 1 1 1 0 1 1 1 1 0 0 0 0 0 0 1 1 1 1 1 1 0
0 0 0 1 1 1 1 1 1 1 1 1 1 1 1 1 1 1 1 1 1 1 1 1 1 1 1 1 1 1 0 0 0 0 0 0 1 1 1 1 1 1 1
0 0 0 0 0 1 1 1 0 0 1 1 1 1 1 1 1 1 1 1 1 2 2 1 1 1 1 1 1 1 0 1 1 1 0 0 0 1 1 1 1 1 1
0 0 0 0 0 0 0 0 0 0 1 1 1 1 0 1 1 1 1 1 2 2 2 2 2 2 1 1 1 1 0 1 1 1 0 0 0 0 1 1 1 1 1
0 0 0 0 0 0 0 0 0 1 1 1 1 0 0 0 1 1 1 1 2 2 2 2 1 1 1 1 1 1 0 1 1 1 0 0 0 0 0 0 1 1 1
0 0 0 0 0 0 0 0 1 1 1 1 1 1 0 0 0 1 1 1 2 2 2 1 1 1 1 1 1 1 0 0 0 0 0 0 0 0 0 0 0 1 1
0 0 0 0 0 0 0 0 1 1 1 1 1 1 0 0 0 0 1 1 1 1 1 1 1 1 1 1 1 1 0 0 0 0 0 0 0 0 0 0 1 1 1
0 0 0 0 0 0 0 0 0 1 1 1 1 1 1 0 0 0 0 1 1 1 1 1 1 1 0 1 1 1 1 0 0 0 0 0 0 0 0 1 1 1 1
0 0 0 0 0 0 0 0 0 0 0 1 1 1 0 0 0 0 0 0 1 1 1 1 1 1 1 1 1 1 1 0 0 0 0 0 0 0 0 0 1 1 1
0 0 0 0 0 0 0 0 0 0 0 0 0 0 0 0 0 0 0 0 1 1 1 1 1 1 1 1 1 1 1 0 0 0 0 0 0 0 0 0 0 1 1
0 0 0 0 0 0 0 0 0 0 0 0 0 0 0 0 0 0 0 0 0 0 1 1 0 0 1 1 1 1 1 0 0 0 0 0 0 0 0 0 0 0 1
0 0 0 0 0 0 0 0 0 0 0 0 0 0 0 0 0 0 0 0 0 0 1 1 0 0 0 1 1 1 1 0 0 0 0 1 1 0 0 0 0 1 1
0 0 0 0 0 0 0 0 0 0 0 0 0 0 0 0 0 0 0 0 1 1 1 1 1 1 0 0 1 1 1 0 0 0 0 0 1 1 1 1 1 1 1
0 0 0 0 0 0 0 0 0 0 0 0 0 0 0 0 0 0 0 1 1 1 1 1 1 1 0 0 0 0 0 0 0 0 0 0 1 1 1 1 1 1 1
0 0 0 0 0 0 0 0 0 0 0 0 0 0 0 0 0 0 0 1 1 1 1 1 1 1 1 0 0 0 0 0 0 0 0 0 0 1 1 1 1 1 1
0 0 0 1 1 1 0 0 0 0 0 0 0 0 0 0 0 0 0 1 1 1 1 1 1 1 1 0 0 0 0 0 0 0 0 0 0 0 0 1 0 0 0
0 0 0 1 1 1 0 0 0 0 0 0 0 0 0 0 0 0 0 0 0 0 0 0 0 0 0 0 0 0 0 0 0 0 0 0 0 0 0 1 1 1 1
0 0 1 1 1 1 1 0 0 0 0 0 0 0 0 0 0 0 0 0 0 0 0 0 0 0 0 0 0 0 0 0 0 0 0 0 0 0 0 0 1 1 1
0 0 0 1 1 1 1 0 0 0 0 0 0 0 0 0 0 0 0 0 0 0 0 0 0 0 0 0 0 0 0 0 0 0 0 0 0 0 0 0 0 0 0
0 0 0 0 0 1 1 0 0 0 0 0 0 0 0 0 0 0 0 0 0 0 0 0 0 0 0 0 0 0 0 0 0 0 0 0 0 0 0 0 0 0 0
0 0 0 0 0 0 0 0 0 0 0 0 0 0 0 0 0 0 0 0 0 0 0 0 0 0 0 0 0 0 0 0 0 0 0 0 0 0 0 0 0 0 0
0 0 0 0 0 0 1 1 0 0 0 0 0 0 0 0 0 0 0 0 0 0 0 0 0 0 0 0 0 0 0 0 0 0 0 0 0 0 0 0 0 0 0
0 0 0 0 0 0 1 1 0 0 0 0 0 0 0 0 0 0 0 0 0 0 0 0 0 0 0 0 0 0 0 0 0 0 1 1 1 1 0 0 0 0 0
0 0 0 0 0 0 1 1 1 0 0 0 0 0 0 0 0 0 0 0 0 0 0 0 0 0 0 0 1 1 0 0 0 1 1 1 1 1 1 0 0 0 0
0 0 0 0 0 0 1 1 1 1 0 0 0 0 0 0 0 0 0 0 0 0 0 0 0 1 1 1 1 1 1 1 0 0 1 1 1 1 1 0 0 0 0
1 0 0 0 0 0 0 1 1 1 0 0 0 0 0 0 0 0 0 0 0 0 0 0 0 1 1 1 1 1 1 1 0 0 1 1 1 1 0 0 0 0 0
Wind_Speed
3 4 6 5 6 8 8 9 9 9 9 9 9 9 9 8 9 8 8 8 8 8 7 7 7 8 8 9 9 9 9 9 9 9 9 9 9 8 7 6 3 5 8
3 4 6 7 7 7 8 9 9 10 10 10 10 9 9 9 9 9 9 8 8 8 7 7 8 9 9 9 9 10 10 10 10 9 7 8 9 9 8 8 8 8 8
4 5 6 7 8 8 8 9 9 10 10 10 9 10 10 10 9 9 9 8 9 9 9 9 9 9 10 10 10 10 10 9 9 7 3 6 9 10 9 9 10 10 10
5 5 6 8 8 9 9 9 9 10 10 10 10 10 10 10 10 10 9 9 10 10 11 12 11 11 10 11 11 10 10 9 7 3 4 7 7 11 10 10 10 10 10
6 6 8 8 9 9 9 9 9 10 10 10 10 10 10 10 10 10 10 10 10 11 12 12 12 11 11 11 11 11 10 8 6 5 7 7 8 10 10 10 10 10 10
6 7 8 8 8 9 9 9 9 10 10 10 9 9 10 10 10 10 10 10 10 11 11 11 12 12 12 11 11 11 10 8 5 7 7 7 7 10 10 10 10 10 10
7 6 8 8 8 9 9 9 9 9 10 10 10 10 10 10 10 10 10 10 11 11 11 12 12 12 12 11 11 11 9 7 7 7 6 7 9 10 10 10 10 10 10
6 6 7 8 8 9 9 9 9 9 10 10 10 10 10 10 10 10 10 10 11 11 11 12 12 12 12 12 11 11 9 6 7 7 7 8 10 10 10 11 11 11 11
6 6 6 7 7 8 9 9 9 10 10 10 10 10 10 11 11 11 11 11 11 11 11 12 12 12 12 12 11 10 9 7 6 6 7 7 10 10 10 11 11 11 11
6 6 6 6 6 6 7 9 9 10 10 10 10 10 9 9 10 9 10 11 11 11 11 12 12 12 12 12 11 9 6 4 7 7 6 8 10 10 10 10 10 10 10
5 5 5 5 5 5 6 7 7 8 7 6 7 7 4 5 7 7 11 11 11 11 11 12 11 10 10 10 9 6 4 5 7 6 7 10 10 10 10 10 10 10 10
5 5 4 5 4 5 4 4 4 4 4 4 5 5 4 5 6 7 10 10 10 10 11 10 9 7 4 5 6 3 4 7 6 6 8 12 10 9 9 10 10 10 9
5 4 4 4 4 4 3 3 3 3 3 3 5 5 4 4 4 4 4 5 6 6 6 7 5 5 6 5 5 5 7 6 5 6 9 12 11 10 10 10 10 10 10
4 4 4 3 4 4 4 3 3 3 2 3 3 4 4 3 3 4 3 4 4 3 4 4 4 6 7 7 7 7 8 5 5 5 8 13 12 11 10 10 10 10 10
4 4 4 3 3 4 4 3 3 3 2 3 3 3 4 3 3 4 4 4 4 4 4 4 5 6 6 7 7 7 8 8 7 6 6 13 13 12 11 11 11 10 10
4 4 4 3 3 4 3 3 2 3 2 3 2 2 3 3 3 3 4 4 4 4 4 4 5 5 5 6 7 7 7 7 7 7 6 8 12 13 12 12 11 10 10
4 4 4 3 3 4 3 3 2 2 2 2 2 2 3 3 3 3 3 4 3 4 4 4 5 5 5 5 6 6 6 6 6 7 6 5 7 11 12 12 11 10 9
3 4 4 3 3 4 3 3 2 2 2 2 2 1 3 3 3 3 3 3 3 3 3 3 4 4 5 5 5 5 5 5 7 6 6 6 5 6 9 12 12 11 10
4 4 4 4 3 4 3 2 2 2 2 1 2 1 2 3 3 3 3 3 3 3 3 3 3 4 5 5 5 4 5 5 5 6 6 7 6 6 6 8 10 11 11
4 4 4 5 4 4 3 2 2 2 1 1 1 1 2 2 3 2 2 3 3 2 2 3 4 3 4 4 4 5 4 4 4 5 5 5 6 7 6 6 5 7 10
5 5 5 5 5 4 3 2 2 2 1 2 1 2 1 2 2 2 1 2 2 2 2 3 3 4 3 3 3 3 4 5 5 4 4 4 5 6 6 6 5 4 4
5 6 5 5 5 4 2 2 1 1 1 1 1 1 1 1 1 2 2 2 2 2 3 3 2 2 2 1 0 1 2 3 3 4 3 3 4 4 5 5 5 5 4
6 6 5 5 5 5 4 2 2 2 2 2 2 1 1 1 1 1 2 2 2 2 2 3 3 2 1 1 1 2 1 1 2 3 4 3 4 4 4 4 5 5 5
7 6 6 6 6 6 6 5 4 3 2 2 2 2 2 2 2 2 2 2 2 2 2 3 3 2 1 1 1 1 2 2 1 1 2 3 3 3 4 3 4 4 4
7 6 6 6 6 6 6 6 5 3 2 2 2 3 3 2 2 2 2 2 3 2 2 2 2 2 2 1 1 1 0 0 2 1 1 1 2 2 3 3 2 3 3
6 5 5 6 6 6 6 6 6 5 4 4 4 3 3 2 2 3 3 2 3 2 3 3 3 3 2 2 2 1 1 1 1 1 1 1 1 2 2 2 2 2 2
Wind_Direction
51 50 48 56 67 75 77 78 82 85 86 88 89 91 93 94 93 89 83 78 76 74 75 79 82 79 78 79 79 80 77 76 74 75 75 72 71 70 67 71 77 90 77
65 69 69 64 67 77 79 79 81 84 86 85 87 88 87 88 88 86 82 77 73 71 72 81 86 82 80 80 77 76 74 73 73 77 82 88 78 69 66 62 52 68 77
78 79 88 72 71 74 78 81 81 83 84 85 89 88 87 86 85 84 82 79 74 69 65 79 92 84 82 80 78 75 72 71 72 75 88 85 83 71 66 66 70 75 76
83 81 79 79 74 71 75 80 82 84 85 84 84 87 88 86 84 80 80 78 75 71 68 79 87 83 82 80 78 75 72 71 71 67 73 68 74 74 67 65 71 75 76
87 83 82 77 74 70 73 80 84 85 84 83 84 85 85 84 83 83 80 76 75 73 72 77 82 82 79 78 77 74 72 72 71 64 67 65 68 71 68 66 68 75 76
90 85 85 76 74 70 72 75 79 80 83 84 83 81 81 80 81 82 81 79 77 76 76 78 80 81 78 74 75 74 69 62 66 66 66 67 71 71 70 70 71 74 77
92 88 88 75 72 68 73 77 77 79 79 78 78 79 79 78 78 79 80 79 78 77 78 79 79 79 79 75 73 72 68 56 61 67 67 67 69 69 71 72 73 74 78
92 91 95 87 74 71 72 78 76 76 77 76 76 76 77 77 77 77 78 79 80 80 78 80 80 80 78 74 71 67 57 36 66 63 66 69 69 70 71 71 72 71 73
94 92 95 97 94 85 73 72 76 76 76 74 73 74 76 76 76 76 76 78 81 83 80 80 80 80 78 75 73 69 60 40 56 59 64 67 69 73 76 75 74 73 73
98 97 93 90 87 91 89 75 72 72 74 74 74 74 81 90 88 84 83 79 81 82 80 80 81 80 78 75 71 66 58 56 59 60 58 68 68 73 76 76 76 77 76
103 101 97 93 85 85 86 87 89 86 82 95 93 89 99 91 88 89 76 79 80 79 78 80 82 84 86 82 72 62 54 60 64 60 59 64 68 73 75 78 80 82 80
112 105 98 97 93 87 84 91 85 86 87 80 82 85 82 81 74 77 90 82 84 86 88 84 89 99 90 82 84 73 61 62 61 63 62 58 63 71 74 77 79 82 83
115 109 107 108 97 90 95 88 80 79 78 75 73 82 83 86 94 88 96 106 100 100 91 96 95 73 72 68 61 60 56 56 58 60 60 56 57 68 74 76 78 80 82
119 111 113 110 111 103 96 92 89 85 81 79 71 74 80 78 79 77 76 75 76 77 78 75 75 76 73 71 68 64 61 54 55 60 58 53 52 59 71 75 76 76 79
130 123 120 125 117 104 95 89 93 82 74 82 66 68 74 79 81 84 84 75 73 76 82 81 77 75 70 66 65 62 61 59 56 56 61 55 49 53 62 70 73 75 75
141 132 129 137 127 116 109 109 88 85 83 73 70 59 77 82 84 85 82 77 74 73 70 77 80 76 72 67 63 59 58 60 59 60 59 64 58 52 54 61 66 69 75
153 146 138 141 145 133 117 98 89 83 86 82 81 78 89 88 94 95 87 86 85 88 87 81 82 78 79 80 72 61 55 53 56 57 56 54 64 63 54 52 56 62 68
166 160 146 154 160 141 124 123 122 106 82 85 86 79 96 104 98 93 93 87 86 83 84 87 87 85 82 75 69 63 62 57 54 53 58 57 50 54 63 53 49 52 58
171 165 156 156 161 144 142 143 121 107 91 83 76 63 92 104 107 108 98 97 96 93 92 92 86 86 87 80 74 66 59 57 55 52 56 54 54 51 57 63 57 50 53
179 173 168 156 160 149 158 155 134 116 115 91 82 89 97 114 113 107 119 119 111 107 102 99 94 90 90 91 84 74 67 68 60 52 51 54 50 50 50 49 58 63 55
182 177 178 176 169 165 161 165 165 156 151 135 123 111 122 133 136 130 137 136 139 126 121 119 112 112 111 113 115 104 93 73 66 62 48 50 58 52 53 52 47 48 66
188 187 182 185 177 172 165 162 168 154 160 120 135 147 149 147 161 158 171 160 157 143 150 138 134 140 130 159 217 168 146 131 84 60 57 49 51 54 51 54 55 50 53
193 189 192 191 181 176 171 162 160 155 169 164 167 158 152 160 178 192 177 171 170 177 163 171 174 180 166 173 337 331 328 64 108 100 64 56 50 47 47 47 52 48 55
196 193 199 195 190 179 181 187 197 198 193 178 180 160 171 177 185 193 183 192 186 190 179 192 193 216 218 197 161 323 341 23 284 131 115 73 54 46 42 42 46 47 51
194 196 202 197 192 186 189 192 208 212 205 187 188 182 188 170 179 180 193 204 202 199 199 204 208 236 245 263 247 215 96 115 280 285 118 111 97 62 46 36 37 42 46
190 193 200 199 194 194 197 200 208 210 208 202 203 198 193 177 183 185 200 215 217 209 207 210 218 230 250 262 265 253 241 250 225 249 221 173 98 75 59 38 27 38 43